Pittsburgh Allegheny Co., PA

4:15 AM EDT on April 23, 2017 (GMT -0400)
Allegheny County

Weather History for KAGC - January, 2013

Change the Weather History Date:

Tuesday, January 15, 2013

  Actual Average Record
Temperature  
Mean Temperature 30 °F -  
Max Temperature 33 °F 43 °F 57 °F (2007)
Min Temperature 26 °F 23 °F 3 °F (2009)
Degree Days  
Heating Degree Days 36    
Moisture  
Dew Point 24 °F    
Average Humidity 79    
Maximum Humidity 96    
Minimum Humidity 69    
Precipitation  
Precipitation 0.00 in - - ()
Sea Level Pressure  
Sea Level Pressure 30.24 in    
Wind  
Wind Speed 5 mph (North)    
Max Wind Speed 9 mph    
Max Gust Speed -    
Visibility 8 miles    
Events Rain , Snow    
Averages and records for this station are not official NWS values.
T = Trace of Precipitation, MM = Missing Value Source: NWS Daily Summary

Daily Weather History Graph

Daily Weather History Graph

Search for Another Location

Airport or City:

Trip Planner

Search our weather history database for the weather conditions in past years. The results will help you decide how hot, cold, wet, or windy it might be!

Date:

Astronomy

Jan. 15, 2013 Rise Set
Actual Time 7:40 AM EST 5:18 PM EST
Civil Twilight 7:10 AM EST 5:48 PM EST
Nautical Twilight 6:37 AM EST 6:21 PM EST
Astronomical Twilight 6:04 AM EST 6:54 PM EST
Moon 9:44 AM EST (1/15) 10:07 PM EST (1/15)
Length of Visible Light 10h 37m
Length of Day
9h 37m
Waxing Crescent, 19% of the Moon is Illuminated
Jan 15
Waxing Crescent
Jan 18
First Quarter
Jan 26
Full
Feb 3
Last Quarter
Feb 10
New

Hourly Weather History & Observations

Time (EST) Temp. Windchill Dew Point Humidity Pressure Visibility Wind Dir Wind Speed Gust Speed Precip Events Conditions
12:53 AM 30.0 °F 25.2 °F 23.0 °F 75% 30.31 in 10.0 mi North 4.6 mph - N/A   Clear
1:53 AM 28.9 °F 22.8 °F 23.0 °F 78% 30.30 in 10.0 mi North 5.8 mph - N/A   Clear
2:53 AM 28.9 °F 21.9 °F 23.0 °F 78% 30.31 in 10.0 mi NNW 6.9 mph - N/A   Clear
3:53 AM 28.0 °F 19.3 °F 21.9 °F 78% 30.32 in 10.0 mi NNW 9.2 mph - N/A   Clear
4:53 AM 27.0 °F 18.7 °F 21.0 °F 78% 30.32 in 10.0 mi North 8.1 mph - N/A   Clear
5:36 AM 26.6 °F 19.1 °F 21.2 °F 80% 30.27 in 10.0 mi North 6.9 mph - N/A   Mostly Cloudy
5:53 AM 26.6 °F 20.0 °F 21.2 °F 80% 30.27 in 10.0 mi North 5.8 mph - N/A   Mostly Cloudy
6:00 AM 26.6 °F 19.1 °F 21.2 °F 80% 30.28 in 10.0 mi North 6.9 mph - N/A   Partly Cloudy
6:53 AM 26.1 °F 19.4 °F 21.0 °F 81% 30.36 in 10.0 mi North 5.8 mph - N/A   Clear
7:53 AM 26.1 °F 17.6 °F 21.0 °F 81% 30.37 in 10.0 mi North 8.1 mph - N/A   Partly Cloudy
8:53 AM 26.1 °F 18.4 °F 21.0 °F 81% 30.40 in 10.0 mi NNW 6.9 mph - N/A   Clear
9:53 AM 27.0 °F 19.5 °F 21.0 °F 78% 30.41 in 10.0 mi North 6.9 mph - N/A   Clear
10:53 AM 28.9 °F 22.8 °F 21.0 °F 72% 30.39 in 10.0 mi Variable 5.8 mph - N/A   Clear
11:53 AM 30.0 °F 24.1 °F 21.9 °F 72% 30.34 in 10.0 mi Variable 5.8 mph - N/A   Clear
12:53 PM 30.9 °F 27.5 °F 21.9 °F 69% 30.31 in 10.0 mi North 3.5 mph - N/A   Clear
1:53 PM 32.0 °F 27.5 °F 23.0 °F 69% 30.30 in 10.0 mi North 4.6 mph - N/A   Clear
2:53 PM 33.1 °F 28.7 °F 24.1 °F 70% 30.28 in 10.0 mi Variable 4.6 mph - N/A   Clear
3:53 PM 32.0 °F 24.8 °F 23.0 °F 69% 30.27 in 10.0 mi North 8.1 mph - N/A   Clear
4:53 PM 32.0 °F 25.6 °F 23.0 °F 69% 30.29 in 10.0 mi North 6.9 mph - N/A   Clear
5:53 PM 30.9 °F 25.2 °F 23.0 °F 72% 30.27 in 10.0 mi NNE 5.8 mph - N/A   Scattered Clouds
6:53 PM 32.0 °F 28.7 °F 23.0 °F 69% 30.27 in 10.0 mi NNE 3.5 mph - N/A   Overcast
7:53 PM 32.0 °F 28.7 °F 23.0 °F 69% 30.23 in 10.0 mi ENE 3.5 mph - N/A   Overcast
8:53 PM 32.0 °F 28.7 °F 23.0 °F 69% 30.19 in 10.0 mi Variable 3.5 mph - N/A   Overcast
9:43 PM 32.0 °F 28.7 °F 24.8 °F 75% 30.12 in 3.0 mi North 3.5 mph - 0.00 in Snow Light Snow
9:47 PM 30.2 °F 26.7 °F 24.8 °F 80% 30.11 in 1.8 mi Variable 3.5 mph - 0.00 in Snow Light Snow
9:53 PM 30.9 °F 27.5 °F 26.1 °F 82% 30.16 in 1.0 mi NE 3.5 mph - 0.00 in Snow Light Snow
10:07 PM 30.2 °F 26.7 °F 26.6 °F 86% 30.09 in 3.0 mi Variable 3.5 mph - 0.00 in Snow Light Snow
10:21 PM 30.2 °F 25.4 °F 26.6 °F 86% 30.09 in 5.0 mi Variable 4.6 mph - 0.00 in Rain Light Freezing Rain
10:53 PM 30.9 °F 27.5 °F 28.9 °F 92% 30.13 in 3.0 mi North 3.5 mph - 0.00 in Rain Light Freezing Rain
11:00 PM 30.2 °F 26.7 °F 28.4 °F 93% 30.07 in 3.0 mi Variable 3.5 mph - 0.00 in Rain Light Freezing Rain
11:18 PM 30.2 °F - 28.4 °F 93% 30.06 in 3.0 mi Calm Calm - 0.00 in Rain Light Freezing Rain
11:51 PM 30.2 °F - 28.4 °F 93% 30.04 in 3.0 mi Calm Calm - 0.00 in Rain Light Freezing Rain
11:53 PM 30.9 °F - 30.0 °F 96% 30.10 in 3.0 mi Calm Calm - 0.00 in Rain Light Freezing Rain